Location: Oberkirch
(48.5323°N, 8.0787°E)
Time: 16:57:24
(UTC+00:00)

Oscar 19 - Visible Passes

Search period start: 14 March 2026 00:00
Search period end: 24 March 2026 00:00
Orbit: 769 x 787 km, 98.9° (Epoch: 14 March)

Date Brightness Start Highest point End Pass type
(mag) Time Alt. Az. Time Alt. Az. Time Alt. Az.
14 Mar 13.7 18:59:04 10° SW 19:02:07 16° W 19:05:09 10° NW visible
15 Mar 12.9 18:24:16 10° SSW 18:28:44 29° W 18:33:11 10° NW visible
17 Mar 13.6 18:59:13 10° SW 19:02:17 16° W 19:05:20 10° NW visible
18 Mar 12.8 18:24:27 10° SSW 18:28:54 29° W 18:33:22 10° NW visible
20 Mar 13.6 18:59:22 10° SW 19:02:26 16° W 19:05:31 10° NW visible
21 Mar 12.8 18:24:36 10° SSW 18:29:04 30° W 18:33:32 10° NW visible
23 Mar 13.6 18:59:31 10° SW 19:02:36 16° W 19:05:41 10° NW visible
